• In Belarus
  • List of Countries
  • For 7 days
  • Water Temperature
  • Satellite Maps
  • Weather Map
  • Weather Widgets
  • user-avatar
    Login

    Hourly Weather Natitingou

    Today, 25 May, Saturday

    Time Temperature Precipitation Wind Pressure Humidity
    00:00 +28°C° 0 mm 2 mps 717 mmHg 72%
    01:00 +28°C° 0.1 mm 2 mps 716 mmHg 73%
    02:00 +27°C° 0.1 mm 2 mps 716 mmHg 74%
    03:00 +27°C° 0.1 mm 2 mps 716 mmHg 75%
    04:00 +27°C° 0 mm 2 mps 716 mmHg 77%
    05:00 +27°C° 0 mm 1 mps 717 mmHg 78%
    06:00 +27°C° 0 mm 1 mps 717 mmHg 81%
    07:00 +28°C° 0 mm 2 mps 717 mmHg 74%
    08:00 +30°C° 0 mm 2 mps 718 mmHg 68%
    09:00 +31°C° 0 mm 3 mps 718 mmHg 61%
    10:00 +34°C° 0 mm 2 mps 718 mmHg 56%
    11:00 +35°C° 0 mm 2 mps 718 mmHg 50%
    12:00 +35°C° 0 mm 3 mps 718 mmHg 53%
    13:00 +36°C° 0 mm 2 mps 717 mmHg 49%
    14:00 +36°C° 0 mm 1 mps 717 mmHg 46%
    15:00 +36°C° 0 mm 1 mps 716 mmHg 43%
    16:00 +35°C° 0 mm 1 mps 716 mmHg 46%
    17:00 +34°C° 0 mm 1 mps 716 mmHg 49%
    18:00 +31°C° 0 mm 0 mps 716 mmHg 53%
    19:00 +32°C° 0.4 mm 1 mps 716 mmHg 56%
    20:00 +31°C° 0.4 mm 1 mps 716 mmHg 59%
    21:00 +30°C° 0.4 mm 1 mps 716 mmHg 63%
    22:00 +30°C° 0 mm 1 mps 716 mmHg 64%
    23:00 +30°C° 0 mm 1 mps 716 mmHg 65%

    Tomorrow, 26 May, Sunday

    Time Temperature Precipitation Wind Pressure Humidity
    00:00 +29°C° 0 mm 1 mps 716 mmHg 66%
    01:00 +28°C° 1.1 mm 1 mps 716 mmHg 71%
    02:00 +28°C° 1.1 mm 2 mps 716 mmHg 76%
    03:00 +27°C° 1.1 mm 2 mps 716 mmHg 81%
    04:00 +27°C° 0 mm 3 mps 716 mmHg 82%
    05:00 +26°C° 0 mm 3 mps 717 mmHg 82%
    06:00 +26°C° 0 mm 4 mps 717 mmHg 83%
    07:00 +27°C° 0 mm 4 mps 717 mmHg 78%
    08:00 +29°C° 0 mm 4 mps 717 mmHg 73%
    09:00 +30°C° 0 mm 4 mps 718 mmHg 69%
    10:00 +32°C° 0 mm 4 mps 717 mmHg 63%
    11:00 +34°C° 0 mm 4 mps 717 mmHg 57%
    12:00 +36°C° 0 mm 3 mps 717 mmHg 51%
    13:00 +36°C° 0 mm 3 mps 716 mmHg 48%
    14:00 +37°C° 0 mm 3 mps 716 mmHg 46%
    15:00 +38°C° 0 mm 3 mps 715 mmHg 43%
    16:00 +36°C° 0 mm 2 mps 715 mmHg 46%
    17:00 +35°C° 0 mm 2 mps 715 mmHg 49%
    18:00 +34°C° 0 mm 2 mps 715 mmHg 52%
    19:00 +32°C° 3.9 mm 2 mps 715 mmHg 61%
    20:00 +30°C° 3.9 mm 2 mps 715 mmHg 69%
    21:00 +28°C° 3.9 mm 3 mps 715 mmHg 77%
    22:00 +28°C° 6.6 mm 3 mps 715 mmHg 80%
    23:00 +27°C° 6.6 mm 4 mps 716 mmHg 82%

    Day after tomorrow, 27 May, Monday

    Time Temperature Precipitation Wind Pressure Humidity
    00:00 +27°C° 6.6 mm 5 mps 716 mmHg 85%
    01:00 +26°C° 4.9 mm 4 mps 716 mmHg 86%
    02:00 +26°C° 4.9 mm 4 mps 716 mmHg 88%
    03:00 +25°C° 4.9 mm 3 mps 716 mmHg 89%
    04:00 +25°C° 5.2 mm 3 mps 716 mmHg 88%
    05:00 +25°C° 5.2 mm 2 mps 717 mmHg 87%
    06:00 +25°C° 5.2 mm 2 mps 717 mmHg 86%
    07:00 +26°C° 0.1 mm 2 mps 717 mmHg 84%
    08:00 +27°C° 0.1 mm 3 mps 718 mmHg 82%
    09:00 +27°C° 0.1 mm 4 mps 718 mmHg 79%
    10:00 +29°C° 0 mm 4 mps 717 mmHg 73%
    11:00 +32°C° 0 mm 4 mps 717 mmHg 67%
    12:00 +33°C° 0 mm 4 mps 717 mmHg 61%
    13:00 +34°C° 0 mm 4 mps 716 mmHg 58%
    14:00 +35°C° 0 mm 4 mps 715 mmHg 55%
    15:00 +35°C° 0 mm 4 mps 715 mmHg 52%
    16:00 +34°C° 0 mm 3 mps 715 mmHg 56%
    17:00 +32°C° 0 mm 2 mps 715 mmHg 59%
    18:00 +31°C° 0 mm 1 mps 715 mmHg 63%
    19:00 +30°C° 0 mm 1 mps 715 mmHg 65%
    20:00 +30°C° 0 mm 2 mps 716 mmHg 67%
    21:00 +29°C° 0 mm 2 mps 716 mmHg 69%
    22:00 +29°C° 0 mm 2 mps 716 mmHg 70%
    23:00 +28°C° 0 mm 2 mps 716 mmHg 71%

    28 May, Tuesday

    Time Temperature Precipitation Wind Pressure Humidity
    00:00 +28°C° 0 mm 2 mps 716 mmHg 72%
    01:00 +28°C° 0 mm 2 mps 716 mmHg 74%
    02:00 +27°C° 0 mm 3 mps 716 mmHg 75%
    03:00 +27°C° 0 mm 3 mps 715 mmHg 76%
    04:00 +26°C° 0 mm 3 mps 716 mmHg 79%
    05:00 +26°C° 0 mm 3 mps 716 mmHg 81%
    06:00 +26°C° 0 mm 3 mps 716 mmHg 83%
    07:00 +27°C° 0 mm 3 mps 717 mmHg 80%
    08:00 +28°C° 0 mm 4 mps 717 mmHg 77%
    09:00 +28°C° 0 mm 4 mps 718 mmHg 74%
    10:00 +30°C° 0 mm 4 mps 718 mmHg 70%
    11:00 +32°C° 0 mm 4 mps 717 mmHg 66%
    12:00 +33°C° 0 mm 4 mps 717 mmHg 62%
    13:00 +33°C° 0 mm 4 mps 717 mmHg 60%
    14:00 +34°C° 0 mm 4 mps 716 mmHg 58%
    15:00 +34°C° 0 mm 4 mps 715 mmHg 56%
    16:00 +33°C° 0 mm 3 mps 715 mmHg 60%
    17:00 +31°C° 0 mm 2 mps 716 mmHg 63%
    18:00 +30°C° 0 mm 2 mps 716 mmHg 66%
    19:00 +30°C° 0 mm 2 mps 716 mmHg 67%
    20:00 +29°C° 0 mm 2 mps 716 mmHg 68%
    21:00 +29°C° 0 mm 2 mps 717 mmHg 69%
    22:00 +28°C° 0 mm 2 mps 717 mmHg 69%
    23:00 +28°C° 0 mm 2 mps 716 mmHg 70%

    29 May, Wednesday

    Time Temperature Precipitation Wind Pressure Humidity
    00:00 +28°C° 0 mm 2 mps 716 mmHg 70%
    01:00 +27°C° 0 mm 2 mps 716 mmHg 71%
    02:00 +27°C° 0 mm 2 mps 716 mmHg 71%
    03:00 +27°C° 0 mm 1 mps 716 mmHg 72%
    04:00 +27°C° 0 mm 2 mps 716 mmHg 73%
    05:00 +27°C° 0 mm 2 mps 716 mmHg 74%
    06:00 +26°C° 0 mm 2 mps 716 mmHg 75%
    07:00 +28°C° 0 mm 3 mps 717 mmHg 72%
    08:00 +29°C° 0 mm 3 mps 717 mmHg 69%
    09:00 +30°C° 0 mm 3 mps 718 mmHg 66%
    10:00 +33°C° 0 mm 3 mps 717 mmHg 61%
    11:00 +34°C° 0 mm 3 mps 717 mmHg 56%
    12:00 +36°C° 0 mm 3 mps 716 mmHg 51%
    13:00 +37°C° 0 mm 2 mps 716 mmHg 46%
    14:00 +37°C° 0 mm 1 mps 715 mmHg 42%
    15:00 +39°C° 0 mm 1 mps 714 mmHg 38%
    16:00 +34°C° 0 mm 0 mps 714 mmHg 42%
    17:00 +33°C° 0 mm 0 mps 714 mmHg 46%
    18:00 +31°C° 0 mm 0 mps 714 mmHg 50%
    19:00 +30°C° 0.1 mm 0 mps 715 mmHg 52%
    20:00 +30°C° 0.1 mm 0 mps 715 mmHg 54%
    21:00 +31°C° 0.1 mm 1 mps 716 mmHg 55%
    22:00 +30°C° 0.9 mm 1 mps 715 mmHg 60%
    23:00 +29°C° 0.9 mm 1 mps 715 mmHg 65%

    30 May, Thursday

    Time Temperature Precipitation Wind Pressure Humidity
    00:00 +28°C° 0.9 mm 1 mps 715 mmHg 70%
    01:00 +28°C° 0.3 mm 2 mps 715 mmHg 73%
    02:00 +27°C° 0.3 mm 2 mps 715 mmHg 77%
    03:00 +26°C° 0.3 mm 3 mps 715 mmHg 80%
    04:00 +26°C° 0 mm 3 mps 715 mmHg 82%
    05:00 +26°C° 0 mm 3 mps 716 mmHg 83%
    06:00 +26°C° 0 mm 3 mps 716 mmHg 85%
    07:00 +27°C° 0 mm 3 mps 717 mmHg 80%
    08:00 +28°C° 0 mm 3 mps 717 mmHg 76%
    09:00 +30°C° 0 mm 4 mps 718 mmHg 72%
    10:00 +32°C° 0 mm 4 mps 717 mmHg 66%
    11:00 +34°C° 0 mm 3 mps 717 mmHg 60%
    12:00 +35°C° 0 mm 3 mps 717 mmHg 54%
    13:00 +36°C° 0 mm 3 mps 716 mmHg 50%
    14:00 +37°C° 0 mm 2 mps 715 mmHg 47%
    15:00 +38°C° 0 mm 2 mps 715 mmHg 43%
    16:00 +36°C° 0 mm 2 mps 715 mmHg 47%
    17:00 +34°C° 0 mm 1 mps 715 mmHg 51%
    18:00 +33°C° 0 mm 1 mps 715 mmHg 55%
    19:00 +32°C° 0 mm 1 mps 715 mmHg 58%
    20:00 +32°C° 0 mm 1 mps 716 mmHg 60%
    21:00 +31°C° 0 mm 1 mps 716 mmHg 63%
    22:00 +30°C° 1.5 mm 2 mps 716 mmHg 69%
    23:00 +28°C° 1.5 mm 3 mps 716 mmHg 75%
    Show more